{"data":{"norad_id":53800,"intl_designator":"2022-111AD","name":"STARLINK-4720","alt_names":[],"object_type":"PAYLOAD","status":"ACTIVE","operator":null,"country":"US","launch_date":"2022-09-11","launch_site_code":"AFETR","launch_vehicle":null,"mission":null,"orbit_class":"UNKNOWN","rcs_meters":null,"size_class":null,"mass_kg":null,"dimensions":null,"purposes":["comms"],"wikipedia_slug":null,"has_3d_model":false,"image_url":null,"decayed_at":null,"tle_current":{"epoch":"2026-05-24T15:56:41.479008Z","epoch_age_seconds":100171,"freshness":"FRESH","line1":"1 53800U 22111AD  26144.66436897  .00033762  00000+0  44748-3 0  9999","line2":"2 53800  53.2074 233.6966 0003272  32.7980 327.3236 15.57979677205980","mean_motion":15.57979677,"eccentricity":0.0003272,"inclination_deg":53.2074,"raan_deg":233.6966,"arg_perigee_deg":32.798,"mean_anomaly_deg":327.3236,"bstar":0.00044748,"rev_number":20598,"period_min":92.427393069261,"perigee_km":391.28920232545,"apogee_km":395.72056477405,"semimajor_km":6771.6418835497,"source":"CELESTRAK","updated_at":"2026-05-25T13:38:17.545987Z"}}}